EW4888 Weather Reports


time (UTC)temp
C
wind
direction
speed
KPH
gust
KPH
rain 1hr
cm
rain 24hr
cm
rain mn
cm
humidity
%
barometer
mb
20260504081121 10 189 4.8 6.4 0.00 0.15 0.00 89 1007.1
20260504080121 10 191 4.8 6.4 0.00 0.15 0.00 89 1007.2
20260504070121 8 192 1.6 4.8 0.00 0.15 0.00 93 1007.5
20260504060121 8 203 0.0 0.0 0.00 0.15 0.00 93 1008.2
20260504050122 9 270 0.0 0.0 0.00 0.15 0.00 88 1008.8
20260504045121 10 225 0.0 0.0 0.00 0.15 0.15 86 1008.8
20260504044121 10 270 0.0 0.0 0.00 0.15 0.15 85 1008.9
20260504043121 10 135 0.0 0.0 0.00 0.15 0.15 82 1008.9
20260504042142 11 135 0.0 0.0 0.00 0.15 0.15 81 1008.8
20260504041121 11 158 0.0 0.0 0.00 0.15 0.15 81 1009.0
20260504040121 12 178 3.2 4.8 0.00 0.15 0.15 79 1009.0
20260504035122 12 188 3.2 4.8 0.00 0.15 0.15 78 1009.0
20260504034123 13 180 4.8 6.4 0.00 0.15 0.15 77 1009.1
20260504033142 12 180 3.2 4.8 0.00 0.15 0.15 77 1009.2
20260504032121 13 202 3.2 6.4 0.00 0.15 0.15 74 1009.1
20260504031121 15 217 4.8 6.4 0.00 0.15 0.15 71 1009.2
20260504030121 15 210 4.8 8.0 0.00 0.15 0.15 71 1009.1
20260504025123 15 226 4.8 6.4 0.00 0.15 0.15 71 1009.1
20260504024124 15 222 4.8 6.4 0.00 0.15 0.15 71 1009.0
20260504023121 15 226 4.8 6.4 0.00 0.15 0.15 70 1009.1
20260504022142 15 234 6.4 8.0 0.00 0.15 0.15 69 1008.9
20260504021121 15 222 6.4 6.4 0.00 0.15 0.15 68 1008.9
20260504020121 15 243 6.4 8.0 0.00 0.15 0.15 67 1009.0
20260504015121 15 237 6.4 9.7 0.00 0.15 0.15 67 1009.0
20260504014143 16 233 8.0 9.7 0.00 0.15 0.15 66 1008.9
20260504013143 16 240 8.0 9.7 0.00 0.15 0.15 65 1008.8
20260504012121 16 238 6.4 11.3 0.00 0.15 0.15 65 1008.6
20260504011125 16 231 6.4 8.0 0.00 0.15 0.15 65 1008.7
20260504010124 17 245 6.4 9.7 0.00 0.15 0.15 62 1008.7
20260504005143 17 226 6.4 11.3 0.00 0.15 0.15 62 1008.7
20260504004122 17 232 8.0 11.3 0.00 0.15 0.15 61 1008.7
20260504003142 18 225 8.0 11.3 0.00 0.15 0.15 59 1008.6
20260504002122 18 252 8.0 11.3 0.00 0.15 0.15 59 1008.6
20260504001121 18 251 9.7 11.3 0.00 0.15 0.15 57 1008.6
20260504000121 19 241 9.7 14.5 0.00 0.15 0.15 56 1008.7
20260503235121 19 245 11.3 14.5 0.00 0.15 0.15 55 1008.7
20260503234121 19 241 8.0 11.3 0.00 0.15 0.15 56 1008.8
20260503233143 20 239 9.7 12.9 0.00 0.15 0.15 55 1008.8
20260503232123 20 245 11.3 16.1 0.00 0.15 0.15 54 1008.9
20260503231143 20 247 12.9 16.1 0.00 0.15 0.15 54 1008.9
20260503230121 20 248 14.5 20.9 0.00 0.15 0.15 52 1009.0
20260503225121 20 245 12.9 19.3 0.00 0.15 0.15 50 1009.0
20260503224121 20 244 12.9 17.7 0.00 0.15 0.15 51 1009.1
20260503223121 20 250 19.3 25.7 0.00 0.15 0.15 48 1009.1
20260503222121 20 247 17.7 24.1 0.00 0.15 0.15 48 1009.1
20260503221121 20 243 16.1 27.4 0.00 0.15 0.15 49 1009.3
20260503220122 20 239 14.5 24.1 0.00 0.15 0.15 49 1009.3
20260503215122 20 256 16.1 24.1 0.00 0.15 0.15 49 1009.2
20260503214121 19 228 16.1 24.1 0.00 0.15 0.15 49 1009.4
20260503213121 20 228 17.7 29.0 0.00 0.15 0.15 49 1009.4
20260503212121 20 242 19.3 30.6 0.00 0.15 0.15 49 1009.3
20260503211121 19 249 22.5 29.0 0.00 0.15 0.15 49 1009.4
20260503210142 18 243 22.5 29.0 0.00 0.15 0.15 49 1009.4
20260503205121 19 237 22.5 29.0 0.00 0.15 0.15 46 1009.5
20260503204126 19 239 20.9 30.6 0.00 0.15 0.15 49 1009.7
20260503203123 20 231 19.3 29.0 0.00 0.15 0.15 45 1009.8
20260503202123 20 253 24.1 33.8 0.00 0.15 0.15 47 1010.3
20260503201123 19 218 19.3 30.6 0.00 0.15 0.15 47 1010.0
20260503200122 19 205 17.7 29.0 0.05 0.15 0.15 47 1010.0
20260503195143 20 211 19.3 27.4 0.05 0.15 0.15 45 1010.2
20260503194122 20 223 19.3 32.2 0.08 0.15 0.15 45 1010.4
20260503193121 20 200 27.4 40.2 0.08 0.15 0.15 45 1010.2
20260503192121 20 202 25.7 38.6 0.13 0.15 0.15 44 1010.4
20260503191121 19 193 30.6 45.1 0.15 0.15 0.15 44 1010.5
20260503190123 18 194 27.4 38.6 0.10 0.10 0.10 47 1010.7
20260503185123 18 190 27.4 38.6 0.10 0.10 0.10 46 1010.7
20260503184122 18 201 27.4 35.4 0.08 0.08 0.08 46 1011.0
20260503183121 17 194 29.0 38.6 0.08 0.08 0.08 49 1011.0
20260503182122 17 192 29.0 40.2 0.03 0.03 0.03 49 1011.4
20260503181142 17 196 27.4 40.2 0.00 0.00 0.00 49 1011.3
20260503180122 17 186 29.0 38.6 0.00 0.00 0.00 50 1012.0
20260503175122 17 203 25.7 35.4 0.00 0.00 0.00 52 1012.0
20260503174125 17 191 27.4 38.6 0.00 0.00 0.00 52 1012.3
20260503173122 16 191 25.7 33.8 0.00 0.00 0.00 52 1012.7
20260503172121 16 215 24.1 29.0 0.00 0.00 0.00 53 1012.9
20260503171122 16 201 19.3 27.4 0.00 0.00 0.00 54 1013.7
20260503170121 16 186 20.9 30.6 0.00 0.00 0.00 52 1014.2
20260503160122 13 200 17.7 24.1 0.00 0.00 0.00 58 1014.7
20260503150142 13 196 14.5 17.7 0.00 0.00 0.00 60 1016.0
20260503140122 11 191 16.1 19.3 0.00 0.00 0.00 67 1016.4
20260503131122 9 190 12.9 17.7 0.00 0.00 0.00 73 1017.1
20260503130122 9 203 11.3 19.3 0.00 0.00 0.00 73 1016.9
20260503120122 8 195 12.9 16.1 0.00 0.00 0.00 76 1016.9
20260503110143 6 201 12.9 14.5 0.00 0.00 0.00 77 1016.8
20260503100122 7 200 12.9 16.1 0.00 0.00 0.00 76 1017.0
20260503090143 7 195 11.3 14.5 0.00 0.00 0.00 74 1017.1